Satellite-Ground Cal/Val Site Overpasses Predictions

Prediction of Satellite NPP Overpassing Cal/Val Site: Antarctic Dome C

Ground Cal/Val Site Location: Latitude: -75.10, Longitude: 123.35; Satellite-Ground Site NADIR distance within 100 km.

Table of predicted overpasses for the next 14.0 days since TLE Epoch: 10/12/2019
Interval Starting Time Ending Time Minimum Distance Time Minimum Distance (km)
1 10/12/2019 15:07:57 10/12/2019 15:08:06 10/12/2019 15:08:01 94.08
2 10/13/2019 14:48:56 10/13/2019 14:49:25 10/13/2019 14:49:11 17.32
3 10/15/2019 07:31:46 10/15/2019 07:32:15 10/15/2019 07:32:01 3.56
4 10/18/2019 14:55:12 10/18/2019 14:55:40 10/18/2019 14:55:26 19.41
5 10/19/2019 14:36:29 10/19/2019 14:36:43 10/19/2019 14:36:36 87.56
6 10/20/2019 07:38:01 10/20/2019 07:38:28 10/20/2019 07:38:15 38.51
7 10/21/2019 07:19:15 10/21/2019 07:19:36 10/21/2019 07:19:25 71.49
8 10/23/2019 15:01:30 10/23/2019 15:01:54 10/23/2019 15:01:42 56.69
9 10/24/2019 14:42:39 10/24/2019 14:43:04 10/24/2019 14:42:51 52.52


NCC Satellite Cal/Val Overpasses Prediction Service
